This demonstration page uses our WeatherBlox Daily Observations layout. Learn more.

Left ArrowRight Arrow

Hourly Observations for August 6, 2015

Temp ( °F °C ) Dew Point ( °F °C ) Humidity (%) Winds ( mph kmh ) Pressure ( in mb ) Visibility ( mi km ) Precip ( " mm )
12:53 am 00:53 Clear 71 21.7 61 16.1 71 71 ESE 5 7 29.96 1015 10 16 N/A
1:53 am 01:53 Cloudy 71 21.7 62 16.7 73 73 N N/A 29.94 1014 10 16 N/A
2:53 am 02:53 Cloudy 71 21.7 60 15.6 68 68 E 5 7 29.93 1014 10 16 N/A
3:53 am 03:53 Cloudy 73 22.8 62 16.7 69 69 E 6 9 29.94 1014 10 16 N/A
4:53 am 04:53 Cloudy with Light Rain 67 19.4 62 16.7 84 84 ENE 8 13 29.95 1014 9 14 0.05 1.27
5:53 am 05:53 Cloudy 66 18.9 63 17.2 90 90 ENE 8 13 29.94 1014 10 16 0.03 0.76
6:53 am 06:53 Mostly Cloudy with Light Rain 65 18.3 63 17.2 93 93 E 8 13 29.94 1014 7 11 0.03 0.76
7:35 am 07:35 Mostly Cloudy with Light Rain 65 18.3 62 16.7 90 90 E 9 15 29.97 1015 7 11 0.02 0.51
7:53 am 07:53 Cloudy with Rain 65 18.3 63 17.2 93 93 E 8 13 29.95 1014 4 6 0.05 1.27
8:10 am 08:10 Cloudy with Rain 65 18.3 63 17.2 93 93 E 7 11 29.97 1015 3 5 0.04 1.02
8:19 am 08:19 Cloudy with Heavy Rain 65 18.3 63 17.2 93 93 E 8 13 29.97 1015 2 3 0.10 2.54
8:24 am 08:24 Cloudy with Heavy Rain 64 17.8 62 16.7 93 93 E 8 13 29.97 1015 2 3 0.12 3.05
8:31 am 08:31 Cloudy with Rain 64 17.8 62 16.7 93 93 ENE 9 15 29.97 1015 3 4 0.14 3.56
8:40 am 08:40 Cloudy with Heavy Rain 64 17.8 62 16.7 93 93 E 9 15 29.97 1015 2 3 0.20 5.08
8:44 am 08:44 Cloudy with Heavy Rain 64 17.8 62 16.7 93 93 E 8 13 29.97 1015 2 3 0.21 5.33
8:48 am 08:48 Cloudy with Light Rain 64 18 63 17 94 94 E 7 11 29.97 1015 3 5 0.21 5.33
8:53 am 08:53 Cloudy with Light Rain 64 17.8 62 16.7 93 93 E 8 13 29.95 1014 4 6 0.21 5.33
9:53 am 09:53 Cloudy with Light Rain 64 17.8 62 16.7 93 93 E 9 15 29.95 1014 5 8 0.09 2.29
10:53 am 10:53 Cloudy with Light Rain 64 17.8 62 16.7 93 93 E 8 13 29.95 1014 5 8 0.05 1.27
11:26 am 11:26 Cloudy with Heavy Rain 64 17.8 62 16.7 93 93 E 14 22 29.94 1014 2 3 0.08 2.03
11:34 am 11:34 Cloudy with Heavy Rain 64 17.8 62 16.7 93 93 E 13 20 29.94 1014 2 2 0.14 3.56
11:41 am 11:41 Cloudy with Heavy Rain 64 17.8 62 16.7 93 93 E 12 19 29.94 1014 2 3 0.18 4.57
11:53 am 11:53 Cloudy with Rain 65 18.3 63 17.2 93 93 E 9 15 29.93 1014 3 5 0.20 5.08
12:07 pm 12:07 Cloudy with Rain 64 17.8 63 17.2 96 96 E 9 15 29.94 1014 5 8 0.02 0.51
12:53 pm 12:53 Cloudy with Light Rain 65 18.3 63 17.2 93 93 E 10 17 29.93 1013 6 10 0.08 2.03
1:49 pm 13:49 Cloudy with Light Rain 66 19 63 17 88 88 E 10 17 29.94 1014 7 11 0.02 0.51
1:53 pm 13:53 Cloudy with Light Rain 66 18.9 63 17.2 90 90 E 9 15 29.91 1013 7 11 0.03 0.76
2:33 pm 14:33 Cloudy with Rain 65 18.3 63 17.2 93 93 E 12 19 29.91 1013 2 3 0.05 1.27
2:40 pm 14:40 Cloudy with Heavy Rain 65 18.3 63 17.2 93 93 E 10 17 29.91 1013 2 3 0.07 1.78
2:48 pm 14:48 Cloudy with Heavy Rain 64 18 63 17 94 94 E 8 13 29.91 1013 2 2 0.11 2.79
2:53 pm 14:53 Cloudy with Heavy Rain 65 18.3 63 17.2 93 93 E 9 15 29.91 1013 1 2 0.17 4.32
3:11 pm 15:11 Cloudy with Heavy Rain 65 18.3 64 17.8 97 97 ENE 8 13 29.91 1013 2 3 0.12 3.05
3:18 pm 15:18 Cloudy with Heavy Rain 65 18.3 63 17.2 93 93 E 8 13 29.91 1013 2 3 0.14 3.56
3:41 pm 15:41 Cloudy with Heavy Rain 65 18.3 63 17.2 93 93 E 9 15 29.91 1013 2 3 0.21 5.33
3:51 pm 15:51 Cloudy with Rain 64 18 64 18 100 100 E 7 11 29.91 1013 3 4 0.24 6.10
3:53 pm 15:53 Cloudy with Rain 65 18.3 64 17.8 97 97 ENE 7 11 29.89 1012 3 5 0.24 6.10
4:28 pm 16:28 Cloudy with Light Rain 65 18.3 63 17.2 93 93 NE 9 15 29.91 1013 5 8 0.03 0.76
4:53 pm 16:53 Cloudy with Light Rain 66 18.9 63 17.2 90 90 ENE 8 13 29.89 1012 8 13 0.04 1.02
5:53 pm 17:53 Cloudy 66 18.9 63 17.2 90 90 ENE 9 15 29.89 1012 10 16 N/A
6:36 pm 18:36 Cloudy 66 18.9 62 16.7 87 87 ENE 12 19 29.88 1012 10 16 N/A
6:53 pm 18:53 Cloudy 66 18.9 62 16.7 87 87 ENE 10 17 29.88 1012 10 16 N/A
7:53 pm 19:53 Cloudy 66 18.9 61 16.1 84 84 NE 9 15 29.89 1012 10 16 N/A
8:53 pm 20:53 Cloudy 66 18.9 60 15.6 81 81 ENE 7 11 29.88 1012 10 16 N/A
9:53 pm 21:53 Mostly Cloudy 65 18.3 60 15.6 84 84 ENE 6 9 29.88 1012 10 16 N/A
10:53 pm 22:53 Cloudy 64 17.8 62 16.7 93 93 N N/A 29.90 1012 10 16 N/A
11:53 pm 23:53 Cloudy 66 18.9 62 16.7 87 87 N N/A 29.91 1013 10 16 N/A

Powered by AerisWeather